TimeMST,TemperatureF,Dew PointF,Humidity,Sea Level PressureIn,VisibilityMPH,Wind Direction,Wind SpeedMPH,Gust SpeedMPH,PrecipitationIn,Events,Conditions,WindDirDegrees,DateUTC
12:53 AM,34.0,30.0,85,30.02,10.0,South,3.5,-,N/A,,Overcast,190,2011-11-21 07:53:00
1:53 AM,37.0,30.0,76,30.01,10.0,Calm,Calm,-,N/A,,Overcast,0,2011-11-21 08:53:00
2:53 AM,34.0,30.9,89,30.02,10.0,East,3.5,-,N/A,,Overcast,90,2011-11-21 09:53:00
3:53 AM,37.0,30.0,76,30.01,10.0,SW,6.9,-,N/A,,Overcast,230,2011-11-21 10:53:00
4:53 AM,35.1,32.0,89,30.05,10.0,ENE,6.9,-,0.00,Rain,Light Rain,70,2011-11-21 11:53:00
5:53 AM,36.0,32.0,86,30.05,10.0,East,4.6,-,0.00,Rain,Light Rain,100,2011-11-21 12:53:00
6:53 AM,33.1,30.9,92,30.08,10.0,SSE,3.5,-,0.00,,Mostly Cloudy,160,2011-11-21 13:53:00
7:53 AM,34.0,32.0,92,30.09,10.0,Calm,Calm,-,N/A,,Scattered Clouds,0,2011-11-21 14:53:00
8:53 AM,36.0,34.0,93,30.09,10.0,SSE,3.5,-,N/A,,Overcast,150,2011-11-21 15:53:00
9:53 AM,39.9,34.0,79,30.07,10.0,Calm,Calm,-,N/A,,Mostly Cloudy,0,2011-11-21 16:53:00
10:53 AM,41.0,35.1,79,30.06,10.0,Calm,Calm,-,N/A,,Overcast,0,2011-11-21 17:53:00
12:53 PM,48.0,34.0,58,30.00,10.0,West,8.1,-,N/A,,Mostly Cloudy,260,2011-11-21 19:53:00
1:53 PM,48.0,36.0,63,29.98,10.0,SSE,12.7,17.3,N/A,,Partly Cloudy,160,2011-11-21 20:53:00
2:07 PM,46.4,35.6,66,30.02,10.0,SSE,12.7,-,N/A,,Partly Cloudy,150,2011-11-21 21:07:00
2:53 PM,46.9,34.0,61,29.99,10.0,SE,11.5,-,N/A,,Mostly Cloudy,140,2011-11-21 21:53:00
3:53 PM,45.0,35.1,68,30.00,10.0,SE,6.9,-,N/A,,Mostly Cloudy,130,2011-11-21 22:53:00
4:53 PM,45.0,32.0,60,30.04,10.0,NW,10.4,-,N/A,,Overcast,320,2011-11-21 23:53:00
6:53 PM,42.1,33.1,70,30.13,10.0,East,3.5,-,0.00,Rain,Light Rain,90,2011-11-22 01:53:00
7:10 PM,39.2,35.6,87,30.14,5.0,East,3.5,-,0.03,Rain,Rain,90,2011-11-22 02:10:00
7:53 PM,37.9,35.1,89,30.17,8.0,ESE,4.6,-,0.06,Rain,Light Rain,110,2011-11-22 02:53:00
8:08 PM,37.4,35.6,93,30.15,10.0,ESE,5.8,-,0.02,Rain,Light Rain,120,2011-11-22 03:08:00
8:53 PM,37.0,35.1,93,30.17,10.0,ESE,4.6,-,0.04,,Mostly Cloudy,120,2011-11-22 03:53:00
9:53 PM,36.0,34.0,93,30.19,10.0,SSE,3.5,-,0.02,,Overcast,150,2011-11-22 04:53:00
10:53 PM,35.1,33.1,92,30.20,10.0,Calm,Calm,-,N/A,,Overcast,0,2011-11-22 05:53:00